This is the latest recevied weather packets stored in our database for station/object OE3BCB-14. If no packets are shown the sender has not sent any weather packets the latest 10 day(s).
| Time | Temp. | Humidity | Pressure | Rain* | Wind** | Luminosity | Snow |
|---|---|---|---|---|---|---|---|
| 1778048657 | 23.89° C | 47% | 1011 hPa | - | - | 152 W/m² | - |
| 1778048354 | 23.89° C | 49% | 1010.9 hPa | - | - | 158 W/m² | - |
| 1778048052 | 22.78° C | 49% | 1010.9 hPa | - | - | 158 W/m² | - |
| 1778047749 | 22.78° C | 49% | 1010.9 hPa | - | - | 58 W/m² | - |
| 1778047447 | 23.33° C | 49% | 1010.9 hPa | - | - | 141 W/m² | - |
| 1778046842 | 22.78° C | 50% | 1011.1 hPa | - | - | 137 W/m² | - |
| 1778046237 | 22.22° C | 51% | 1011 hPa | - | - | 111 W/m² | - |
| 1778045935 | 21.67° C | 51% | 1010.9 hPa | - | - | 48 W/m² | - |
| 1778045633 | 21.11° C | 51% | 1011 hPa | - | - | 34 W/m² | - |
| 1778045028 | 20.56° C | 53% | 1011.2 hPa | - | - | 84 W/m² | - |
| 1778044725 | 20° C | 53% | 1011.2 hPa | - | - | 105 W/m² | - |
| 1778044423 | 18.89° C | 53% | 1011.2 hPa | - | - | 103 W/m² | - |
| 1778044120 | 18.33° C | 53% | 1011.1 hPa | - | - | 28 W/m² | - |
| 1778043818 | 18.33° C | 52% | 1011.1 hPa | - | - | 24 W/m² | - |
| 1778043516 | 18.33° C | 52% | 1011 hPa | - | - | 22 W/m² | - |
| 1778043213 | 18.33° C | 52% | 1011 hPa | - | - | 22 W/m² | - |
| 1778042911 | 18.89° C | 52% | 1011 hPa | - | - | 24 W/m² | - |
| 1778042608 | 18.33° C | 52% | 1011 hPa | - | - | 24 W/m² | - |
| 1778042306 | 18.33° C | 53% | 1010.9 hPa | - | - | 32 W/m² | - |
| 1778041399 | 17.78° C | 53% | 1010.7 hPa | - | - | 16 W/m² | - |
| 1778041096 | 17.78° C | 52% | 1010.6 hPa | - | - | 13 W/m² | - |
| 1778040794 | 17.78° C | 52% | 1010.6 hPa | - | - | 10 W/m² | - |
| 1778040492 | 17.78° C | 52% | 1010.7 hPa | - | - | 9 W/m² | - |
| 1778040189 | 17.78° C | 52% | 1010.6 hPa | - | - | 8 W/m² | - |
| 1778039887 | 17.78° C | 53% | 1010.5 hPa | - | - | 8 W/m² | - |
* Rain since midnight (hover to see other rain measurements)
** Current wind speed in m/s (hover to see current wind gust speed)